Time,TemperatureF,DewpointF,PressureIn,WindDirection,WindDirectionDegrees,WindSpeedMPH,WindSpeedGustMPH,Humidity,HourlyPrecipIn,Conditions,Clouds,dailyrainin,SoftwareType,DateUTC
2013-10-17 00:00:00,54.7,39.2,29.93,North,0,0.0,0.0,56,0.00,,,0.00,WUHU216HW,2013-10-17 07:00:00,
2013-10-17 00:05:00,54.5,39.1,29.93,North,0,0.0,0.0,56,0.00,,,0.00,WUHU216HW,2013-10-17 07:05:00,
2013-10-17 00:10:00,54.4,38.9,29.93,North,0,0.0,0.0,56,0.00,,,0.00,WUHU216HW,2013-10-17 07:10:00,
2013-10-17 00:15:00,54.2,39.3,29.93,North,0,0.0,0.0,57,0.00,,,0.00,WUHU216HW,2013-10-17 07:15:00,
2013-10-17 00:20:00,54.0,39.1,29.93,North,0,0.0,0.0,57,0.00,,,0.00,WUHU216HW,2013-10-17 07:20:00,
2013-10-17 00:25:00,53.8,39.3,29.93,North,0,0.0,0.0,58,0.00,,,0.00,WUHU216HW,2013-10-17 07:25:00,
2013-10-17 00:30:00,53.6,39.3,29.93,North,0,0.0,0.0,58,0.00,,,0.00,WUHU216HW,2013-10-17 07:30:00,
2013-10-17 00:35:00,53.5,39.5,29.93,North,0,0.0,0.0,59,0.00,,,0.00,WUHU216HW,2013-10-17 07:35:00,
2013-10-17 00:41:00,53.3,39.3,29.93,North,0,0.0,0.0,59,0.00,,,0.00,WUHU216HW,2013-10-17 07:41:00,
2013-10-17 00:46:00,53.1,39.2,29.93,North,0,0.0,0.0,59,0.00,,,0.00,WUHU216HW,2013-10-17 07:46:00,
2013-10-17 00:51:00,52.9,39.0,29.93,North,0,0.0,0.0,59,0.00,,,0.00,WUHU216HW,2013-10-17 07:51:00,
2013-10-17 00:56:00,52.9,39.4,29.93,North,0,0.0,0.0,60,0.00,,,0.00,WUHU216HW,2013-10-17 07:56:00,
2013-10-17 01:01:00,52.7,39.2,29.93,North,0,0.0,0.0,60,0.00,,,0.00,WUHU216HW,2013-10-17 08:01:00,
2013-10-17 01:06:00,52.6,39.1,29.93,North,0,0.0,0.0,60,0.00,,,0.00,WUHU216HW,2013-10-17 08:06:00,
2013-10-17 01:09:00,52.6,39.5,29.94,North,0,0.0,0.0,61,0.00,,,0.00,WUHU216HW,2013-10-17 08:09:00,
2013-10-17 01:14:00,52.2,39.2,29.94,North,0,0.0,0.0,61,0.00,,,0.00,WUHU216HW,2013-10-17 08:14:00,
2013-10-17 01:19:00,52.2,39.2,29.93,North,0,0.0,0.0,61,0.00,,,0.00,WUHU216HW,2013-10-17 08:19:00,
2013-10-17 01:24:00,52.0,39.3,29.94,North,0,0.0,0.0,62,0.00,,,0.00,WUHU216HW,2013-10-17 08:24:00,
2013-10-17 01:29:00,51.8,39.2,29.94,North,0,0.0,0.0,62,0.00,,,0.00,WUHU216HW,2013-10-17 08:29:00,
2013-10-17 01:34:00,51.7,39.0,29.94,North,0,0.0,0.0,62,0.00,,,0.00,WUHU216HW,2013-10-17 08:34:00,
2013-10-17 01:39:00,51.7,39.4,29.95,North,0,0.0,0.0,63,0.00,,,0.00,WUHU216HW,2013-10-17 08:39:00,
2013-10-17 01:44:00,51.5,39.2,29.95,North,0,0.0,0.0,63,0.00,,,0.00,WUHU216HW,2013-10-17 08:44:00,
2013-10-17 01:49:00,51.5,39.2,29.95,North,0,0.0,0.0,63,0.00,,,0.00,WUHU216HW,2013-10-17 08:49:00,
2013-10-17 01:54:00,51.3,39.1,29.95,North,0,0.0,0.0,63,0.00,,,0.00,WUHU216HW,2013-10-17 08:54:00,
2013-10-17 01:59:00,51.1,39.3,29.95,North,0,0.0,0.0,64,0.00,,,0.00,WUHU216HW,2013-10-17 08:59:00,
2013-10-17 02:04:00,50.9,39.2,29.94,North,0,0.0,0.0,64,0.00,,,0.00,WUHU216HW,2013-10-17 09:04:00,
2013-10-17 02:09:00,50.9,39.2,29.94,North,0,0.0,0.0,64,0.00,,,0.00,WUHU216HW,2013-10-17 09:09:00,
2013-10-17 02:14:00,50.8,39.0,29.94,North,0,0.0,0.0,64,0.00,,,0.00,WUHU216HW,2013-10-17 09:14:00,
2013-10-17 02:20:00,50.8,39.0,29.94,North,0,0.0,0.0,64,0.00,,,0.00,WUHU216HW,2013-10-17 09:20:00,
2013-10-17 02:25:00,50.6,39.3,29.94,North,0,0.0,0.0,65,0.00,,,0.00,WUHU216HW,2013-10-17 09:25:00,
2013-10-17 02:30:00,50.4,39.1,29.94,North,0,0.0,0.0,65,0.00,,,0.00,WUHU216HW,2013-10-17 09:30:00,
2013-10-17 02:35:00,50.2,38.9,29.94,North,0,0.0,0.0,65,0.00,,,0.00,WUHU216HW,2013-10-17 09:35:00,
2013-10-17 02:40:00,50.0,39.1,29.94,North,0,0.0,0.0,66,0.00,,,0.00,WUHU216HW,2013-10-17 09:40:00,
2013-10-17 02:45:00,50.0,39.1,29.94,North,0,0.0,0.0,66,0.00,,,0.00,WUHU216HW,2013-10-17 09:45:00,
2013-10-17 02:50:00,50.0,39.5,29.94,North,0,0.0,0.0,67,0.00,,,0.00,WUHU216HW,2013-10-17 09:50:00,
2013-10-17 02:55:00,49.7,39.2,29.94,North,0,0.0,0.0,67,0.00,,,0.00,WUHU216HW,2013-10-17 09:55:00,
2013-10-17 03:00:00,49.7,39.2,29.94,North,0,0.0,0.0,67,0.00,,,0.00,WUHU216HW,2013-10-17 10:00:00,
2013-10-17 03:05:00,49.5,39.0,29.94,North,0,0.0,0.0,67,0.00,,,0.00,WUHU216HW,2013-10-17 10:05:00,
2013-10-17 03:10:00,49.3,38.8,29.94,North,0,0.0,0.0,67,0.00,,,0.00,WUHU216HW,2013-10-17 10:10:00,
2013-10-17 03:15:00,49.3,38.8,29.94,North,0,0.0,0.0,67,0.00,,,0.00,WUHU216HW,2013-10-17 10:15:00,
2013-10-17 03:20:00,49.3,38.8,29.93,North,0,0.0,0.0,67,0.00,,,0.00,WUHU216HW,2013-10-17 10:20:00,
2013-10-17 03:25:00,49.1,38.6,29.93,North,0,0.0,0.0,67,0.00,,,0.00,WUHU216HW,2013-10-17 10:25:00,
2013-10-17 03:30:00,49.0,38.8,29.93,North,0,0.0,0.0,68,0.00,,,0.00,WUHU216HW,2013-10-17 10:30:00,
2013-10-17 03:35:00,48.8,38.6,29.93,North,0,0.0,0.0,68,0.00,,,0.00,WUHU216HW,2013-10-17 10:35:00,
2013-10-17 03:40:00,48.6,38.5,29.93,North,0,0.0,0.0,68,0.00,,,0.00,WUHU216HW,2013-10-17 10:40:00,
2013-10-17 03:45:00,48.6,38.5,29.93,North,0,0.0,0.0,68,0.00,,,0.00,WUHU216HW,2013-10-17 10:45:00,
2013-10-17 03:50:00,48.6,38.9,29.93,North,0,0.0,0.0,69,0.00,,,0.00,WUHU216HW,2013-10-17 10:50:00,
2013-10-17 03:55:00,48.4,38.7,29.93,North,0,0.0,0.0,69,0.00,,,0.00,WUHU216HW,2013-10-17 10:55:00,
2013-10-17 04:01:00,48.2,38.5,29.93,North,0,0.0,0.0,69,0.00,,,0.00,WUHU216HW,2013-10-17 11:01:00,
2013-10-17 04:06:00,48.1,38.4,29.93,North,0,0.0,0.0,69,0.00,,,0.00,WUHU216HW,2013-10-17 11:06:00,
2013-10-17 04:11:00,48.1,38.7,29.93,North,0,0.0,0.0,70,0.00,,,0.00,WUHU216HW,2013-10-17 11:11:00,
2013-10-17 04:16:00,47.9,38.5,29.93,North,0,0.0,0.0,70,0.00,,,0.00,WUHU216HW,2013-10-17 11:16:00,
2013-10-17 04:21:00,47.7,38.4,29.93,North,0,0.0,0.0,70,0.00,,,0.00,WUHU216HW,2013-10-17 11:21:00,
2013-10-17 04:26:00,47.5,38.3,29.92,North,0,0.0,0.0,70,0.00,,,0.00,WUHU216HW,2013-10-17 11:26:00,
2013-10-17 04:31:00,47.5,38.6,29.93,North,0,0.0,0.0,71,0.00,,,0.00,WUHU216HW,2013-10-17 11:31:00,
2013-10-17 04:36:00,47.5,38.6,29.93,North,0,0.0,0.0,71,0.00,,,0.00,WUHU216HW,2013-10-17 11:36:00,
2013-10-17 04:41:00,47.3,38.4,29.93,North,0,0.0,0.0,71,0.00,,,0.00,WUHU216HW,2013-10-17 11:41:00,
2013-10-17 04:46:00,47.2,38.3,29.93,North,0,0.0,0.0,71,0.00,,,0.00,WUHU216HW,2013-10-17 11:46:00,
2013-10-17 04:51:00,47.2,38.3,29.93,North,0,0.0,0.0,71,0.00,,,0.00,WUHU216HW,2013-10-17 11:51:00,
2013-10-17 04:56:00,47.2,38.6,29.93,North,0,0.0,0.0,72,0.00,,,0.00,WUHU216HW,2013-10-17 11:56:00,
2013-10-17 05:01:00,47.0,38.4,29.93,North,0,0.0,0.0,72,0.00,,,0.00,WUHU216HW,2013-10-17 12:01:00,
2013-10-17 05:06:00,47.0,38.4,29.93,North,0,0.0,0.0,72,0.00,,,0.00,WUHU216HW,2013-10-17 12:06:00,
2013-10-17 05:11:00,46.8,38.3,29.93,North,0,0.0,0.0,72,0.00,,,0.00,WUHU216HW,2013-10-17 12:11:00,
2013-10-17 05:16:00,46.8,38.3,29.93,North,0,0.0,0.0,72,0.00,,,0.00,WUHU216HW,2013-10-17 12:16:00,
2013-10-17 05:21:00,46.6,38.1,29.93,North,0,0.0,0.0,72,0.00,,,0.00,WUHU216HW,2013-10-17 12:21:00,
2013-10-17 05:26:00,46.4,38.0,29.93,North,0,0.0,0.0,72,0.00,,,0.00,WUHU216HW,2013-10-17 12:26:00,
2013-10-17 05:31:00,46.4,38.0,29.93,North,0,0.0,0.0,72,0.00,,,0.00,WUHU216HW,2013-10-17 12:31:00,
2013-10-17 05:36:00,46.4,38.0,29.93,North,0,0.0,0.0,72,0.00,,,0.00,WUHU216HW,2013-10-17 12:36:00,
2013-10-17 05:41:00,46.3,37.8,29.93,North,0,0.0,0.0,72,0.00,,,0.00,WUHU216HW,2013-10-17 12:41:00,
2013-10-17 05:47:00,46.3,37.8,29.93,North,0,0.0,0.0,72,0.00,,,0.00,WUHU216HW,2013-10-17 12:47:00,
2013-10-17 05:52:00,46.1,37.6,29.93,North,0,0.0,0.0,72,0.00,,,0.00,WUHU216HW,2013-10-17 12:52:00,
2013-10-17 05:57:00,46.1,37.9,29.93,North,0,0.0,0.0,73,0.00,,,0.00,WUHU216HW,2013-10-17 12:57:00,
2013-10-17 06:02:00,45.9,37.7,29.93,North,0,0.0,0.0,73,0.00,,,0.00,WUHU216HW,2013-10-17 13:02:00,
2013-10-17 06:07:00,45.9,37.7,29.93,North,0,0.0,0.0,73,0.00,,,0.00,WUHU216HW,2013-10-17 13:07:00,
2013-10-17 06:12:00,45.9,37.7,29.93,North,0,0.0,0.0,73,0.00,,,0.00,WUHU216HW,2013-10-17 13:12:00,
2013-10-17 06:17:00,45.7,37.9,29.93,North,0,0.0,0.0,74,0.00,,,0.00,WUHU216HW,2013-10-17 13:17:00,
2013-10-17 06:22:00,45.7,37.9,29.94,North,0,0.0,0.0,74,0.00,,,0.00,WUHU216HW,2013-10-17 13:22:00,
2013-10-17 06:27:00,45.7,37.9,29.94,North,0,0.0,0.0,74,0.00,,,0.00,WUHU216HW,2013-10-17 13:27:00,
2013-10-17 06:32:00,45.5,37.7,29.94,North,0,0.0,0.0,74,0.00,,,0.00,WUHU216HW,2013-10-17 13:32:00,
2013-10-17 06:37:00,45.5,37.7,29.94,North,0,0.0,0.0,74,0.00,,,0.00,WUHU216HW,2013-10-17 13:37:00,
2013-10-17 06:42:00,45.4,37.5,29.94,North,0,0.0,0.0,74,0.00,,,0.00,WUHU216HW,2013-10-17 13:42:00,
2013-10-17 06:47:00,45.4,37.5,29.94,North,0,0.0,0.0,74,0.00,,,0.00,WUHU216HW,2013-10-17 13:47:00,
2013-10-17 06:52:00,45.2,37.4,29.94,North,0,0.0,0.0,74,0.00,,,0.00,WUHU216HW,2013-10-17 13:52:00,
2013-10-17 06:57:00,45.2,37.4,29.94,North,0,0.0,0.0,74,0.00,,,0.00,WUHU216HW,2013-10-17 13:57:00,
2013-10-17 07:02:00,45.2,37.4,29.94,North,0,0.0,0.0,74,0.00,,,0.00,WUHU216HW,2013-10-17 14:02:00,
2013-10-17 07:07:00,45.0,37.2,29.94,North,0,0.0,0.0,74,0.00,,,0.00,WUHU216HW,2013-10-17 14:07:00,
2013-10-17 07:12:00,45.0,37.2,29.94,North,0,0.0,0.0,74,0.00,,,0.00,WUHU216HW,2013-10-17 14:12:00,
2013-10-17 07:17:00,45.0,37.2,29.94,North,0,0.0,0.0,74,0.00,,,0.00,WUHU216HW,2013-10-17 14:17:00,
2013-10-17 07:22:00,45.0,37.2,29.94,North,0,0.0,0.0,74,0.00,,,0.00,WUHU216HW,2013-10-17 14:22:00,
2013-10-17 07:27:00,44.8,37.0,29.94,North,0,0.0,0.0,74,0.00,,,0.00,WUHU216HW,2013-10-17 14:27:00,
2013-10-17 07:32:00,44.8,37.0,29.94,North,0,0.0,0.0,74,0.00,,,0.00,WUHU216HW,2013-10-17 14:32:00,
2013-10-17 07:37:00,44.8,37.0,29.95,North,0,0.0,0.0,74,0.00,,,0.00,WUHU216HW,2013-10-17 14:37:00,
2013-10-17 07:42:00,44.8,37.0,29.95,North,0,0.0,0.0,74,0.00,,,0.00,WUHU216HW,2013-10-17 14:42:00,
2013-10-17 07:47:00,44.8,37.4,29.94,North,0,0.0,0.0,75,0.00,,,0.00,WUHU216HW,2013-10-17 14:47:00,
2013-10-17 07:53:00,44.8,37.4,29.95,North,0,0.0,0.0,75,0.00,,,0.00,WUHU216HW,2013-10-17 14:53:00,
2013-10-17 07:58:00,45.0,37.5,29.95,North,0,0.0,0.0,75,0.00,,,0.00,WUHU216HW,2013-10-17 14:58:00,
2013-10-17 08:03:00,45.0,37.5,29.95,North,0,0.0,0.0,75,0.00,,,0.00,WUHU216HW,2013-10-17 15:03:00,
2013-10-17 08:08:00,45.0,37.5,29.95,North,0,0.0,0.0,75,0.00,,,0.00,WUHU216HW,2013-10-17 15:08:00,
2013-10-17 08:13:00,45.0,37.5,29.95,North,0,0.0,0.0,75,0.00,,,0.00,WUHU216HW,2013-10-17 15:13:00,
2013-10-17 08:18:00,45.2,37.7,29.95,North,0,0.0,0.0,75,0.00,,,0.00,WUHU216HW,2013-10-17 15:18:00,
2013-10-17 08:23:00,45.4,37.9,29.95,North,0,0.0,0.0,75,0.00,,,0.00,WUHU216HW,2013-10-17 15:23:00,
2013-10-17 08:28:00,45.7,38.6,29.95,North,0,0.0,0.0,76,0.00,,,0.00,WUHU216HW,2013-10-17 15:28:00,
2013-10-17 08:33:00,45.9,38.8,29.95,North,0,0.0,0.0,76,0.00,,,0.00,WUHU216HW,2013-10-17 15:33:00,
2013-10-17 08:38:00,46.3,39.2,29.95,North,0,0.0,0.0,76,0.00,,,0.00,WUHU216HW,2013-10-17 15:38:00,
2013-10-17 08:43:00,46.4,39.0,29.95,North,0,0.0,0.0,75,0.00,,,0.00,WUHU216HW,2013-10-17 15:43:00,
2013-10-17 08:48:00,46.8,39.3,29.96,North,0,0.0,0.0,75,0.00,,,0.00,WUHU216HW,2013-10-17 15:48:00,
2013-10-17 08:53:00,47.2,39.6,29.96,North,0,0.0,0.0,75,0.00,,,0.00,WUHU216HW,2013-10-17 15:53:00,
2013-10-17 08:58:00,47.7,40.2,29.96,North,0,0.0,0.0,75,0.00,,,0.00,WUHU216HW,2013-10-17 15:58:00,
2013-10-17 09:03:00,48.2,40.2,29.96,North,0,0.0,0.0,74,0.00,,,0.00,WUHU216HW,2013-10-17 16:03:00,
2013-10-17 09:08:00,48.6,40.2,29.96,North,0,0.0,0.0,73,0.00,,,0.00,WUHU216HW,2013-10-17 16:08:00,
2013-10-17 09:13:00,48.8,40.2,29.96,North,0,0.0,0.0,72,0.00,,,0.00,WUHU216HW,2013-10-17 16:13:00,
2013-10-17 09:18:00,49.1,40.5,29.96,North,0,0.0,0.0,72,0.00,,,0.00,WUHU216HW,2013-10-17 16:18:00,
2013-10-17 09:23:00,49.7,40.7,29.96,North,0,0.0,0.0,71,0.00,,,0.00,WUHU216HW,2013-10-17 16:23:00,
2013-10-17 09:29:00,50.0,41.1,29.96,North,0,0.0,0.0,71,0.00,,,0.00,WUHU216HW,2013-10-17 16:29:00,
2013-10-17 09:34:00,50.8,41.4,29.96,North,0,0.0,0.0,70,0.00,,,0.00,WUHU216HW,2013-10-17 16:34:00,
2013-10-17 09:39:00,51.1,41.0,29.96,North,0,0.0,0.0,68,0.00,,,0.00,WUHU216HW,2013-10-17 16:39:00,
2013-10-17 09:44:00,51.7,41.5,29.96,North,0,0.0,0.0,68,0.00,,,0.00,WUHU216HW,2013-10-17 16:44:00,
2013-10-17 09:49:00,52.0,41.9,29.95,North,0,0.0,0.0,68,0.00,,,0.00,WUHU216HW,2013-10-17 16:49:00,
2013-10-17 09:54:00,52.6,42.0,29.95,North,0,0.0,0.0,67,0.00,,,0.00,WUHU216HW,2013-10-17 16:54:00,
2013-10-17 09:59:00,53.1,42.0,29.95,North,0,0.0,0.0,66,0.00,,,0.00,WUHU216HW,2013-10-17 16:59:00,
2013-10-17 10:04:00,53.6,42.1,29.95,North,0,0.0,0.0,65,0.00,,,0.00,WUHU216HW,2013-10-17 17:04:00,
2013-10-17 10:09:00,54.2,42.2,29.95,North,0,0.0,0.0,64,0.00,,,0.00,WUHU216HW,2013-10-17 17:09:00,
2013-10-17 10:14:00,54.9,42.5,29.95,North,0,0.0,0.0,63,0.00,,,0.00,WUHU216HW,2013-10-17 17:14:00,
2013-10-17 10:19:00,55.6,42.8,29.95,North,0,0.0,0.0,62,0.00,,,0.00,WUHU216HW,2013-10-17 17:19:00,
2013-10-17 10:24:00,56.2,43.3,29.95,North,0,0.0,0.0,62,0.00,,,0.00,WUHU216HW,2013-10-17 17:24:00,
2013-10-17 10:29:00,56.7,43.4,29.95,North,0,0.0,0.0,61,0.00,,,0.00,WUHU216HW,2013-10-17 17:29:00,
2013-10-17 10:34:00,57.6,43.9,29.95,North,0,0.0,0.0,60,0.00,,,0.00,WUHU216HW,2013-10-17 17:34:00,
2013-10-17 10:39:00,58.1,43.5,29.95,North,0,0.0,0.0,58,0.00,,,0.00,WUHU216HW,2013-10-17 17:39:00,
2013-10-17 10:44:00,58.7,43.9,29.95,North,0,0.0,0.0,58,0.00,,,0.00,WUHU216HW,2013-10-17 17:44:00,
2013-10-17 10:49:00,59.6,44.7,29.95,North,0,0.0,0.0,58,0.00,,,0.00,WUHU216HW,2013-10-17 17:49:00,
2013-10-17 10:54:00,60.1,44.8,29.95,North,0,0.0,0.0,57,0.00,,,0.00,WUHU216HW,2013-10-17 17:54:00,
2013-10-17 10:59:00,60.8,45.0,29.95,North,0,0.0,0.0,56,0.00,,,0.00,WUHU216HW,2013-10-17 17:59:00,
2013-10-17 11:04:00,61.6,45.2,29.95,North,0,0.0,0.0,55,0.00,,,0.00,WUHU216HW,2013-10-17 18:04:00,
2013-10-17 11:09:00,62.5,44.6,29.95,North,0,0.0,0.0,52,0.00,,,0.00,WUHU216HW,2013-10-17 18:09:00,
2013-10-17 11:14:00,63.2,44.7,29.95,North,0,0.0,0.0,51,0.00,,,0.00,WUHU216HW,2013-10-17 18:14:00,
2013-10-17 11:19:00,63.7,45.2,29.94,North,0,0.0,0.0,51,0.00,,,0.00,WUHU216HW,2013-10-17 18:19:00,
2013-10-17 11:24:00,64.4,44.8,29.94,North,0,0.0,0.0,49,0.00,,,0.00,WUHU216HW,2013-10-17 18:24:00,
2013-10-17 11:29:00,65.0,44.7,29.94,North,0,0.0,0.0,48,0.00,,,0.00,WUHU216HW,2013-10-17 18:29:00,
2013-10-17 11:35:00,65.5,44.6,29.94,North,0,0.0,0.0,47,0.00,,,0.00,WUHU216HW,2013-10-17 18:35:00,
2013-10-17 11:40:00,66.2,44.8,29.94,North,0,0.0,0.0,46,0.00,,,0.00,WUHU216HW,2013-10-17 18:40:00,
2013-10-17 11:45:00,66.8,44.1,29.94,North,0,0.0,0.0,44,0.00,,,0.00,WUHU216HW,2013-10-17 18:45:00,
2013-10-17 11:50:00,67.3,44.6,29.94,North,0,0.0,0.0,44,0.00,,,0.00,WUHU216HW,2013-10-17 18:50:00,
2013-10-17 11:55:00,68.0,44.7,29.93,North,0,0.0,0.0,43,0.00,,,0.00,WUHU216HW,2013-10-17 18:55:00,
2013-10-17 12:00:00,68.6,43.9,29.93,North,0,0.0,0.0,41,0.00,,,0.00,WUHU216HW,2013-10-17 19:00:00,
2013-10-17 12:05:00,69.1,45.6,29.93,North,0,0.0,0.0,43,0.00,,,0.00,WUHU216HW,2013-10-17 19:05:00,
2013-10-17 12:10:00,69.7,44.9,29.93,North,0,0.0,0.0,41,0.00,,,0.00,WUHU216HW,2013-10-17 19:10:00,
2013-10-17 12:15:00,70.2,44.8,29.93,North,0,0.0,0.0,40,0.00,,,0.00,WUHU216HW,2013-10-17 19:15:00,
2013-10-17 12:20:00,71.1,45.6,29.93,North,0,0.0,0.0,40,0.00,,,0.00,WUHU216HW,2013-10-17 19:20:00,
2013-10-17 12:25:00,71.6,45.4,29.92,North,0,0.0,0.0,39,0.00,,,0.00,WUHU216HW,2013-10-17 19:25:00,
2013-10-17 12:30:00,72.0,45.6,29.92,North,0,0.0,0.0,39,0.00,,,0.00,WUHU216HW,2013-10-17 19:30:00,
2013-10-17 12:32:00,72.2,45.1,29.92,North,0,0.0,0.0,38,0.00,,,0.00,WUHU216HW,2013-10-17 19:32:00,
2013-10-17 12:37:00,72.7,45.5,29.92,North,0,0.0,0.0,38,0.00,,,0.00,WUHU216HW,2013-10-17 19:37:00,
2013-10-17 12:42:00,73.3,45.3,29.91,North,0,0.0,0.0,37,0.00,,,0.00,WUHU216HW,2013-10-17 19:42:00,
2013-10-17 12:47:00,73.6,45.6,29.91,North,0,0.0,0.0,37,0.00,,,0.00,WUHU216HW,2013-10-17 19:47:00,
2013-10-17 12:52:00,74.2,44.6,29.90,North,0,0.0,0.0,35,0.00,,,0.00,WUHU216HW,2013-10-17 19:52:00,
2013-10-17 12:57:00,74.5,44.1,29.90,North,0,0.0,0.0,34,0.00,,,0.00,WUHU216HW,2013-10-17 19:57:00,
2013-10-17 13:02:00,74.9,42.2,29.90,North,0,0.0,0.0,31,0.00,,,0.00,WUHU216HW,2013-10-17 20:02:00,
2013-10-17 13:07:00,75.2,44.0,29.90,North,0,0.0,0.0,33,0.00,,,0.00,WUHU216HW,2013-10-17 20:07:00,
2013-10-17 13:12:00,75.6,44.4,29.89,North,0,0.0,0.0,33,0.00,,,0.00,WUHU216HW,2013-10-17 20:12:00,
2013-10-17 13:17:00,76.0,43.9,29.89,North,0,0.0,0.0,32,0.00,,,0.00,WUHU216HW,2013-10-17 20:17:00,
2013-10-17 13:22:00,76.3,44.3,29.89,North,0,0.0,0.0,32,0.00,,,0.00,WUHU216HW,2013-10-17 20:22:00,
2013-10-17 13:27:00,76.7,43.8,29.88,North,0,0.0,0.0,31,0.00,,,0.00,WUHU216HW,2013-10-17 20:27:00,
2013-10-17 13:32:00,76.9,44.0,29.88,North,0,0.0,0.0,31,0.00,,,0.00,WUHU216HW,2013-10-17 20:32:00,
2013-10-17 13:37:00,77.4,43.7,29.88,North,0,0.0,0.0,30,0.00,,,0.00,WUHU216HW,2013-10-17 20:37:00,
2013-10-17 13:42:00,77.6,43.8,29.88,North,0,0.0,0.0,30,0.00,,,0.00,WUHU216HW,2013-10-17 20:42:00,
2013-10-17 13:47:00,77.9,43.0,29.88,North,0,0.0,0.0,29,0.00,,,0.00,WUHU216HW,2013-10-17 20:47:00,
2013-10-17 13:52:00,78.1,44.3,29.87,North,0,0.0,0.0,30,0.00,,,0.00,WUHU216HW,2013-10-17 20:52:00,
2013-10-17 13:57:00,78.5,43.5,29.87,North,0,0.0,0.0,29,0.00,,,0.00,WUHU216HW,2013-10-17 20:57:00,
2013-10-17 14:02:00,78.8,43.7,29.87,North,0,0.0,0.0,29,0.00,,,0.00,WUHU216HW,2013-10-17 21:02:00,
2013-10-17 14:07:00,79.0,43.9,29.87,North,0,0.0,0.0,29,0.00,,,0.00,WUHU216HW,2013-10-17 21:07:00,
2013-10-17 14:12:00,79.2,44.1,29.86,North,0,0.0,0.0,29,0.00,,,0.00,WUHU216HW,2013-10-17 21:12:00,
2013-10-17 14:17:00,79.2,44.1,29.86,North,0,0.0,0.0,29,0.00,,,0.00,WUHU216HW,2013-10-17 21:17:00,
2013-10-17 14:22:00,79.6,43.4,29.86,North,0,0.0,0.0,28,0.00,,,0.00,WUHU216HW,2013-10-17 21:22:00,
2013-10-17 14:27:00,79.7,41.5,29.86,North,0,0.0,0.0,26,0.00,,,0.00,WUHU216HW,2013-10-17 21:27:00,
2013-10-17 14:33:00,79.9,43.8,29.86,North,0,0.0,0.0,28,0.00,,,0.00,WUHU216HW,2013-10-17 21:33:00,
2013-10-17 14:38:00,80.1,43.8,29.86,North,0,0.0,0.0,28,0.00,,,0.00,WUHU216HW,2013-10-17 21:38:00,
2013-10-17 14:43:00,80.3,44.0,29.85,North,0,0.0,0.0,28,0.00,,,0.00,WUHU216HW,2013-10-17 21:43:00,
2013-10-17 14:48:00,80.5,44.2,29.85,North,0,0.0,0.0,28,0.00,,,0.00,WUHU216HW,2013-10-17 21:48:00,
2013-10-17 14:53:00,80.6,44.4,29.85,North,0,0.0,0.0,28,0.00,,,0.00,WUHU216HW,2013-10-17 21:53:00,
2013-10-17 14:58:00,80.6,43.3,29.85,North,0,0.0,0.0,27,0.00,,,0.00,WUHU216HW,2013-10-17 21:58:00,
2013-10-17 15:03:00,80.6,44.4,29.85,North,0,0.0,0.0,28,0.00,,,0.00,WUHU216HW,2013-10-17 22:03:00,
2013-10-17 15:08:00,80.6,44.4,29.85,North,0,0.0,0.0,28,0.00,,,0.00,WUHU216HW,2013-10-17 22:08:00,
2013-10-17 15:13:00,80.6,44.4,29.85,North,0,0.0,0.0,28,0.00,,,0.00,WUHU216HW,2013-10-17 22:13:00,
2013-10-17 15:18:00,80.6,42.3,29.85,North,0,0.0,0.0,26,0.00,,,0.00,WUHU216HW,2013-10-17 22:18:00,
2013-10-17 15:23:00,80.6,42.3,29.85,North,0,0.0,0.0,26,0.00,,,0.00,WUHU216HW,2013-10-17 22:23:00,
2013-10-17 15:28:00,80.6,42.3,29.85,North,0,0.0,0.0,26,0.00,,,0.00,WUHU216HW,2013-10-17 22:28:00,
2013-10-17 15:33:00,80.6,43.3,29.84,North,0,0.0,0.0,27,0.00,,,0.00,WUHU216HW,2013-10-17 22:33:00,
2013-10-17 15:39:00,80.6,42.3,29.84,North,0,0.0,0.0,26,0.00,,,0.00,WUHU216HW,2013-10-17 22:39:00,
2013-10-17 15:44:00,80.5,41.0,29.84,North,0,0.0,0.0,25,0.00,,,0.00,WUHU216HW,2013-10-17 22:44:00,
2013-10-17 15:49:00,80.5,41.0,29.84,North,0,0.0,0.0,25,0.00,,,0.00,WUHU216HW,2013-10-17 22:49:00,
2013-10-17 15:54:00,80.5,40.1,29.84,North,0,0.0,0.0,24,0.00,,,0.00,WUHU216HW,2013-10-17 22:54:00,
2013-10-17 15:59:00,80.6,41.2,29.84,North,0,0.0,0.0,25,0.00,,,0.00,WUHU216HW,2013-10-17 22:59:00,
2013-10-17 16:04:00,80.6,40.1,29.83,North,0,0.0,0.0,24,0.00,,,0.00,WUHU216HW,2013-10-17 23:04:00,
2013-10-17 16:09:00,80.8,40.3,29.83,North,0,0.0,0.0,24,0.00,,,0.00,WUHU216HW,2013-10-17 23:09:00,
2013-10-17 16:14:00,80.8,41.4,29.83,North,0,0.0,0.0,25,0.00,,,0.00,WUHU216HW,2013-10-17 23:14:00,
2013-10-17 16:19:00,80.8,41.4,29.83,North,0,0.0,0.0,25,0.00,,,0.00,WUHU216HW,2013-10-17 23:19:00,
2013-10-17 16:24:00,80.6,41.2,29.83,North,0,0.0,0.0,25,0.00,,,0.00,WUHU216HW,2013-10-17 23:24:00,
2013-10-17 16:29:00,80.6,41.2,29.83,North,0,0.0,0.0,25,0.00,,,0.00,WUHU216HW,2013-10-17 23:29:00,
2013-10-17 16:34:00,80.6,41.2,29.83,North,0,0.0,0.0,25,0.00,,,0.00,WUHU216HW,2013-10-17 23:34:00,
2013-10-17 16:39:00,80.3,39.9,29.83,North,0,0.0,0.0,24,0.00,,,0.00,WUHU216HW,2013-10-17 23:39:00,
2013-10-17 16:44:00,80.1,40.8,29.83,North,0,0.0,0.0,25,0.00,,,0.00,WUHU216HW,2013-10-17 23:44:00,
2013-10-17 16:49:00,79.9,39.5,29.83,North,0,0.0,0.0,24,0.00,,,0.00,WUHU216HW,2013-10-17 23:49:00,
2013-10-17 16:55:00,79.9,40.6,29.83,North,0,0.0,0.0,25,0.00,,,0.00,WUHU216HW,2013-10-17 23:55:00,
2013-10-17 17:00:00,79.6,40.2,29.83,North,0,0.0,0.0,25,0.00,,,0.00,WUHU216HW,2013-10-18 00:00:00,
2013-10-17 17:05:00,79.6,40.2,29.83,North,0,0.0,0.0,25,0.00,,,0.00,WUHU216HW,2013-10-18 00:05:00,
2013-10-17 17:10:00,79.2,38.9,29.83,North,0,0.0,0.0,24,0.00,,,0.00,WUHU216HW,2013-10-18 00:10:00,
2013-10-17 17:15:00,79.2,37.8,29.83,North,0,0.0,0.0,23,0.00,,,0.00,WUHU216HW,2013-10-18 00:15:00,
2013-10-17 17:20:00,79.0,39.8,29.83,North,0,0.0,0.0,25,0.00,,,0.00,WUHU216HW,2013-10-18 00:20:00,
2013-10-17 17:25:00,78.7,39.4,29.83,North,0,0.0,0.0,25,0.00,,,0.00,WUHU216HW,2013-10-18 00:25:00,
2013-10-17 17:30:00,78.5,39.3,29.83,North,0,0.0,0.0,25,0.00,,,0.00,WUHU216HW,2013-10-18 00:30:00,
2013-10-17 17:35:00,78.1,38.0,29.83,North,0,0.0,0.0,24,0.00,,,0.00,WUHU216HW,2013-10-18 00:35:00,
2013-10-17 17:40:00,77.9,37.8,29.83,North,0,0.0,0.0,24,0.00,,,0.00,WUHU216HW,2013-10-18 00:40:00,
2013-10-17 17:45:00,77.6,38.6,29.83,North,0,0.0,0.0,25,0.00,,,0.00,WUHU216HW,2013-10-18 00:45:00,
2013-10-17 17:50:00,77.2,38.4,29.83,North,0,0.0,0.0,25,0.00,,,0.00,WUHU216HW,2013-10-18 00:50:00,
2013-10-17 17:55:00,76.9,39.1,29.83,North,0,0.0,0.0,26,0.00,,,0.00,WUHU216HW,2013-10-18 00:55:00,
2013-10-17 18:00:00,76.5,39.8,29.83,North,0,0.0,0.0,27,0.00,,,0.00,WUHU216HW,2013-10-18 01:00:00,
2013-10-17 18:06:00,76.0,40.3,29.83,North,0,0.0,0.0,28,0.00,,,0.00,WUHU216HW,2013-10-18 01:06:00,
2013-10-17 18:11:00,75.6,40.1,29.83,North,0,0.0,0.0,28,0.00,,,0.00,WUHU216HW,2013-10-18 01:11:00,
2013-10-17 18:16:00,75.2,40.8,29.83,North,0,0.0,0.0,29,0.00,,,0.00,WUHU216HW,2013-10-18 01:16:00,
2013-10-17 18:21:00,74.5,40.1,29.83,North,0,0.0,0.0,29,0.00,,,0.00,WUHU216HW,2013-10-18 01:21:00,
2013-10-17 18:26:00,74.2,39.8,29.83,North,0,0.0,0.0,29,0.00,,,0.00,WUHU216HW,2013-10-18 01:26:00,
2013-10-17 18:31:00,73.6,39.3,29.83,North,0,0.0,0.0,29,0.00,,,0.00,WUHU216HW,2013-10-18 01:31:00,
2013-10-17 18:36:00,73.3,39.0,29.83,North,0,0.0,0.0,29,0.00,,,0.00,WUHU216HW,2013-10-18 01:36:00,
2013-10-17 18:41:00,72.7,39.6,29.83,North,0,0.0,0.0,30,0.00,,,0.00,WUHU216HW,2013-10-18 01:41:00,
2013-10-17 18:46:00,72.4,39.2,29.83,North,0,0.0,0.0,30,0.00,,,0.00,WUHU216HW,2013-10-18 01:46:00,
2013-10-17 18:51:00,72.0,39.0,29.83,North,0,0.0,0.0,30,0.00,,,0.00,WUHU216HW,2013-10-18 01:51:00,
2013-10-17 18:56:00,71.5,38.5,29.83,North,0,0.0,0.0,30,0.00,,,0.00,WUHU216HW,2013-10-18 01:56:00,
2013-10-17 19:01:00,70.9,38.8,29.84,North,0,0.0,0.0,31,0.00,,,0.00,WUHU216HW,2013-10-18 02:01:00,
2013-10-17 19:06:00,70.6,38.4,29.84,North,0,0.0,0.0,31,0.00,,,0.00,WUHU216HW,2013-10-18 02:06:00,
2013-10-17 19:12:00,70.0,38.7,29.83,North,0,0.0,0.0,32,0.00,,,0.00,WUHU216HW,2013-10-18 02:12:00,
2013-10-17 19:17:00,69.5,38.3,29.84,North,0,0.0,0.0,32,0.00,,,0.00,WUHU216HW,2013-10-18 02:17:00,
2013-10-17 19:22:00,69.1,38.6,29.84,North,0,0.0,0.0,33,0.00,,,0.00,WUHU216HW,2013-10-18 02:22:00,
2013-10-17 19:27:00,68.8,38.4,29.84,North,0,0.0,0.0,33,0.00,,,0.00,WUHU216HW,2013-10-18 02:27:00,
2013-10-17 19:32:00,68.4,38.0,29.84,North,0,0.0,0.0,33,0.00,,,0.00,WUHU216HW,2013-10-18 02:32:00,
2013-10-17 19:37:00,67.9,38.3,29.84,North,0,0.0,0.0,34,0.00,,,0.00,WUHU216HW,2013-10-18 02:37:00,
2013-10-17 19:42:00,67.5,38.0,29.84,North,0,0.0,0.0,34,0.00,,,0.00,WUHU216HW,2013-10-18 02:42:00,
2013-10-17 19:47:00,67.1,38.4,29.85,North,0,0.0,0.0,35,0.00,,,0.00,WUHU216HW,2013-10-18 02:47:00,
2013-10-17 19:52:00,66.8,37.4,29.85,North,0,0.0,0.0,34,0.00,,,0.00,WUHU216HW,2013-10-18 02:52:00,
2013-10-17 19:57:00,66.4,37.1,29.85,North,0,0.0,0.0,34,0.00,,,0.00,WUHU216HW,2013-10-18 02:57:00,
2013-10-17 20:02:00,66.1,37.4,29.85,North,0,0.0,0.0,35,0.00,,,0.00,WUHU216HW,2013-10-18 03:02:00,
2013-10-17 20:07:00,65.7,37.9,29.85,North,0,0.0,0.0,36,0.00,,,0.00,WUHU216HW,2013-10-18 03:07:00,
2013-10-17 20:12:00,65.2,37.4,29.85,North,0,0.0,0.0,36,0.00,,,0.00,WUHU216HW,2013-10-18 03:12:00,
2013-10-17 20:17:00,65.0,37.9,29.85,North,0,0.0,0.0,37,0.00,,,0.00,WUHU216HW,2013-10-18 03:17:00,
2013-10-17 20:23:00,64.4,37.4,29.85,North,0,0.0,0.0,37,0.00,,,0.00,WUHU216HW,2013-10-18 03:23:00,
2013-10-17 20:28:00,64.3,38.0,29.85,North,0,0.0,0.0,38,0.00,,,0.00,WUHU216HW,2013-10-18 03:28:00,
2013-10-17 20:33:00,63.9,37.7,29.85,North,0,0.0,0.0,38,0.00,,,0.00,WUHU216HW,2013-10-18 03:33:00,
2013-10-17 20:38:00,63.5,37.4,29.85,North,0,0.0,0.0,38,0.00,,,0.00,WUHU216HW,2013-10-18 03:38:00,
2013-10-17 20:43:00,63.2,37.7,29.85,North,0,0.0,0.0,39,0.00,,,0.00,WUHU216HW,2013-10-18 03:43:00,
2013-10-17 20:48:00,62.8,37.5,29.85,North,0,0.0,0.0,39,0.00,,,0.00,WUHU216HW,2013-10-18 03:48:00,
2013-10-17 20:53:00,62.6,38.0,29.85,North,0,0.0,0.0,40,0.00,,,0.00,WUHU216HW,2013-10-18 03:53:00,
2013-10-17 20:58:00,62.3,37.6,29.85,North,0,0.0,0.0,40,0.00,,,0.00,WUHU216HW,2013-10-18 03:58:00,
2013-10-17 21:01:00,62.1,37.5,29.85,North,0,0.0,0.0,40,0.00,,,0.00,WUHU216HW,2013-10-18 04:01:00,
2013-10-17 21:02:00,62.1,37.5,29.86,North,0,0.0,0.0,40,0.00,,,0.00,WUHU216HW,2013-10-18 04:02:00,
2013-10-17 21:03:00,61.9,37.9,29.85,North,0,0.0,0.0,41,0.00,,,0.00,WUHU216HW,2013-10-18 04:03:00,
2013-10-17 21:04:00,61.9,37.9,29.86,North,0,0.0,0.0,41,0.00,,,0.00,WUHU216HW,2013-10-18 04:04:00,
2013-10-17 21:09:00,61.6,37.6,29.85,North,0,0.0,0.0,41,0.00,,,0.00,WUHU216HW,2013-10-18 04:09:00,
2013-10-17 21:14:00,61.2,37.3,29.86,North,0,0.0,0.0,41,0.00,,,0.00,WUHU216HW,2013-10-18 04:14:00,
2013-10-17 21:19:00,60.8,37.5,29.86,North,0,0.0,0.0,42,0.00,,,0.00,WUHU216HW,2013-10-18 04:19:00,
2013-10-17 21:24:00,60.5,37.8,29.86,North,0,0.0,0.0,43,0.00,,,0.00,WUHU216HW,2013-10-18 04:24:00,
2013-10-17 21:29:00,60.1,37.4,29.86,North,0,0.0,0.0,43,0.00,,,0.00,WUHU216HW,2013-10-18 04:29:00,
2013-10-17 21:34:00,59.9,37.9,29.86,North,0,0.0,0.0,44,0.00,,,0.00,WUHU216HW,2013-10-18 04:34:00,
2013-10-17 21:39:00,59.6,37.5,29.86,North,0,0.0,0.0,44,0.00,,,0.00,WUHU216HW,2013-10-18 04:39:00,
2013-10-17 21:44:00,59.4,37.4,29.86,North,0,0.0,0.0,44,0.00,,,0.00,WUHU216HW,2013-10-18 04:44:00,
2013-10-17 21:49:00,59.2,37.8,29.86,North,0,0.0,0.0,45,0.00,,,0.00,WUHU216HW,2013-10-18 04:49:00,
2013-10-17 21:54:00,58.9,38.1,29.86,North,0,0.0,0.0,46,0.00,,,0.00,WUHU216HW,2013-10-18 04:54:00,
2013-10-17 22:00:00,58.7,37.9,29.86,North,0,0.0,0.0,46,0.00,,,0.00,WUHU216HW,2013-10-18 05:00:00,
2013-10-17 22:05:00,58.3,38.2,29.86,North,0,0.0,0.0,47,0.00,,,0.00,WUHU216HW,2013-10-18 05:05:00,
2013-10-17 22:10:00,58.1,38.0,29.86,North,0,0.0,0.0,47,0.00,,,0.00,WUHU216HW,2013-10-18 05:10:00,
2013-10-17 22:15:00,58.0,37.8,29.86,North,0,0.0,0.0,47,0.00,,,0.00,WUHU216HW,2013-10-18 05:15:00,
2013-10-17 22:20:00,57.8,38.3,29.86,North,0,0.0,0.0,48,0.00,,,0.00,WUHU216HW,2013-10-18 05:20:00,
2013-10-17 22:25:00,57.4,37.9,29.86,North,0,0.0,0.0,48,0.00,,,0.00,WUHU216HW,2013-10-18 05:25:00,
2013-10-17 22:30:00,57.2,38.4,29.86,North,0,0.0,0.0,49,0.00,,,0.00,WUHU216HW,2013-10-18 05:30:00,
2013-10-17 22:35:00,56.9,38.0,29.86,North,0,0.0,0.0,49,0.00,,,0.00,WUHU216HW,2013-10-18 05:35:00,
2013-10-17 22:40:00,56.7,38.3,29.86,North,0,0.0,0.0,50,0.00,,,0.00,WUHU216HW,2013-10-18 05:40:00,
2013-10-17 22:45:00,56.5,38.2,29.86,North,0,0.0,0.0,50,0.00,,,0.00,WUHU216HW,2013-10-18 05:45:00,
2013-10-17 22:50:00,56.2,37.8,29.86,North,0,0.0,0.0,50,0.00,,,0.00,WUHU216HW,2013-10-18 05:50:00,
2013-10-17 22:55:00,56.0,37.6,29.86,North,0,0.0,0.0,50,0.00,,,0.00,WUHU216HW,2013-10-18 05:55:00,
2013-10-17 23:00:00,55.8,37.4,29.87,North,0,0.0,0.0,50,0.00,,,0.00,WUHU216HW,2013-10-18 06:00:00,
2013-10-17 23:05:00,55.6,37.7,29.87,North,0,0.0,0.0,51,0.00,,,0.00,WUHU216HW,2013-10-18 06:05:00,
2013-10-17 23:10:00,55.4,37.5,29.86,North,0,0.0,0.0,51,0.00,,,0.00,WUHU216HW,2013-10-18 06:10:00,
2013-10-17 23:16:00,55.3,37.9,29.86,North,0,0.0,0.0,52,0.00,,,0.00,WUHU216HW,2013-10-18 06:16:00,
2013-10-17 23:21:00,55.1,37.7,29.86,North,0,0.0,0.0,52,0.00,,,0.00,WUHU216HW,2013-10-18 06:21:00,
2013-10-17 23:26:00,54.9,37.5,29.86,North,0,0.0,0.0,52,0.00,,,0.00,WUHU216HW,2013-10-18 06:26:00,
2013-10-17 23:31:00,54.7,37.8,29.86,North,0,0.0,0.0,53,0.00,,,0.00,WUHU216HW,2013-10-18 06:31:00,
2013-10-17 23:36:00,54.5,37.7,29.86,North,0,0.0,0.0,53,0.00,,,0.00,WUHU216HW,2013-10-18 06:36:00,
2013-10-17 23:41:00,54.4,38.0,29.86,North,0,0.0,0.0,54,0.00,,,0.00,WUHU216HW,2013-10-18 06:41:00,
2013-10-17 23:46:00,54.2,37.8,29.86,North,0,0.0,0.0,54,0.00,,,0.00,WUHU216HW,2013-10-18 06:46:00,
2013-10-17 23:51:00,54.0,37.6,29.86,North,0,0.0,0.0,54,0.00,,,0.00,WUHU216HW,2013-10-18 06:51:00,
2013-10-17 23:56:00,53.6,37.8,29.86,North,0,0.0,0.0,55,0.00,,,0.00,WUHU216HW,2013-10-18 06:56:00,